Regional Weather Roundup
Issued by NWS Wakefield, VA

Current Version | Previous Version | Text Only | Print | Product List | Glossary On
Versions: 1 2 3 4 5 6 7 8 9 10 11 12 13 14 15 16 17 18 19 20 21 22 23 24 25 26 27 28 29 30 31 32 33 34 35 36 37 38 39 40 41 42 43 44 45 46 47 48 49 50
000
ASUS41 KAKQ 221710
RWRAKQ

REGIONAL WEATHER ROUNDUP
NATIONAL WEATHER SERVICE WAKEFIELD VA
100 PM EDT MON SEP 22 2014

Note: "fair" indicates few or no clouds below 12,000 feet with no
significant weather and/or obstructions to visibility. * = Denotes
station may not report precipitation (e.g., rain,snow,etc.),
thunder or fog.

VAZ042-051-052>054-056-221800-
NORTHERN VIRGINIA

CITY           SKY/WX    TMP DP  RH WIND       PRES   REMARKS
WASH NATIONAL  MOSUNNY   73  45  36 NW18      30.04S
DULLES         MOSUNNY   68  44  42 NW15      30.05S
FORT BELVOIR   SUNNY     71  46  42 NW13G22   30.04S
QUANTICO       MOSUNNY   71  47  42 NW14G26   30.05S
FREDERICKSBRG* MOSUNNY   74  47  38 W15G22    30.04S
STAFFORD*      SUNNY     72  47  41 NW15G23   30.08S
WARRENTON      SUNNY     73  53  49 NW14G23   30.05S
CULPEPER*      SUNNY     72  45  37 N8G16     30.06S
MANASSAS*      MOSUNNY   70  46  43 NW13G22   30.05S
LEESBURG*      SUNNY     68  48  49 N20       30.06S
WINCHESTER     PTSUNNY   68  43  40 NW16G23   30.08R
FRONT ROYAL*   PTSUNNY   68  45  42 W10G18    30.07S
LURAY*         MOSUNNY   68  46  45 W9G22     30.10S
$$

VAZ048-049-060>072-079>083-221800-
CENTRAL AND SOUTH CENTRAL VIRGINIA...AND NORTH CENTRAL NORTH CAROLINA

CITY           SKY/WX    TMP DP  RH WIND       PRES   REMARKS
RICHMOND       PTSUNNY   78  47  33 N9G21     30.02F
CHESTERFIELD*  SUNNY     75  46  35 N12G17    30.04S
PETERSBURG*    SUNNY     76  46  33 NW8       30.03S
HANOVER        SUNNY     75  50  41 NW14G20   30.05S
TAPPAHANNOCK*  MOSUNNY   75  45  35 W8        30.03S
CHARLOTTSVILLE SUNNY     72  46  39 NW10G18   30.06S
ORANGE*        SUNNY     72  45  37 W6G18     30.07S
LOUISA*        SUNNY     73  46  38 W13       30.04S
FARMVILLE*     SUNNY     75  46  35 NW6       30.03F
CREWE*         SUNNY     75  49  39 NW10      30.04S
FORT PICKETT*  SUNNY     75  50  41 NW9G21    30.04S
LUNENBURG*     SUNNY     74  51  44 NW3       30.04F
SOUTH HILL*    SUNNY     75  52  43 NW6       30.09S
LAWRENCEVILLE* SUNNY     74  51  44 N6        30.04S
ROANOKE RAPIDS SUNNY     73  50  43 NW5       30.04R
RALEIGH        PTSUNNY   73  50  44 NE8       30.06S
$$

VAZ088>098-221800-
SOUTHEAST VIRGINIA

CITY           SKY/WX    TMP DP  RH WIND       PRES   REMARKS
NORFOLK        SUNNY     74  52  46 NE12      30.01R
VIRGINIA BEACH MOSUNNY   76  51  41 NW10      30.01R
NORFOLK NAVAL  MOSUNNY   77  51  40 N8        30.03R
WEST POINT*    SUNNY     77  47  34 W8G21     30.03S
NEWPORT NEWS   MOSUNNY   80  53  39 NW10      30.01S
LANGLEY AFB    SUNNY     75  52  45 NW7       30.01R
FORT EUSTIS    SUNNY     75  47  36 NW8       30.00S
WILLIAMSBURG*  SUNNY     82  54  36 NW10      30.02S
HR EXEC AP*    SUNNY     75  54  46 CALM      30.04R
FRANKLIN*      SUNNY     79  48  34 NW5       30.02R
WAKEFIELD      SUNNY     77  50  38 N7        30.02S
$$

VAZ020-022-025-037-045-221800-
WEST CENTRAL AND SOUTHWEST VIRGINIA

CITY           SKY/WX    TMP DP  RH WIND       PRES   REMARKS
STAUNTON*      MOSUNNY   70  44  39 NW14      30.10F
HOT SPRINGS VA MOSUNNY   54  31  42 NW14G21   30.16S
LYNCHBURG      SUNNY     70  50  49 VRB6      30.08F
DANVILLE       SUNNY     74  52  46 N9G16     30.08F
SOUTH BOSTON*  NOT AVBL
MARTINSVILLE   SUNNY     73  50  43 N3        30.11F
ROANOKE        MOSUNNY   69  48  47 NW9       30.11F
BLACKSBURG     MOSUNNY   64  54  68 NW9       30.14F
DUBLIN*        SUNNY     65  50  58 N7G16     30.15F
MARION*        MOSUNNY   62  48  60 NW6       30.18F
HILLSVILLE*    SUNNY     60  48  63 NW10      30.13F
RICHLANDS*     CLOUDY    59  48  66 N7        30.18F
WISE*          PTSUNNY   61  43  51 N3        30.21S
ABINGDON*      MOSUNNY   65  48  55 CALM      30.16F
$$

MDZ021>025-VAZ099-100-221800-
SOUTHERN MARYLAND AND THE DELMARVA PENINSULA

CITY           SKY/WX    TMP DP  RH WIND       PRES   REMARKS
PATUXENT RIVER MOSUNNY   74  48  39 NW18      30.01S
BAY BRIDGE APT   N/A     68  45  42 NW12      30.02R
LEONARDTOWN    PTSUNNY   70  46  43 NW10      30.03S
DOVER          MOSUNNY   70  49  47 W15G21    29.96R
GEORGETOWN     MOSUNNY   72  48  42 VRB6G18   29.98S
EASTON         MOSUNNY   70  50  49 N10G22    30.04S
CAMBRIDGE      MOSUNNY   72  50  46 NW17G24   30.00S
SALISBURY      MOSUNNY   75  50  41 W10G21    29.98S
OCEAN CITY     SUNNY     76  51  41 NW8G17    29.97R
WALLOPS ISLAND SUNNY     75  54  47 NW13G21   29.99R
ACCOMACK*      MOSUNNY   72  52  49 NW10G20   30.00S
$$

NCZ012>017-030>032-221800-
EASTERN NORTH CAROLINA

CITY           SKY/WX    TMP DP  RH WIND       PRES   REMARKS
ELIZABETH CITY MOSUNNY   77  55  46 NW8       30.01R
AHOSKIE*       SUNNY     73  51  46 CALM      30.04R
EDENTON*       MOSUNNY   77  55  47 NE5       30.02S
CURRITUCK*     MOSUNNY   77  52  42 N8        30.02R
KILL DEVIL HLS MOSUNNY   76  61  58 NE8       30.00R
MANTEO         CLOUDY    75  61  61 N10       30.01S
CAPE HATTERAS  PTSUNNY   75  66  73 N9G16     29.99S
TARBORO*       MOSUNNY   78  54  42 N6        30.04S
GOLDSBORO      MOSUNNY   74  59  58 NW3       30.02F
WASHINGTON     MOSUNNY   74  58  55 N5        30.03S
GREENVILLE     MOSUNNY   75  55  50 NW5       30.05F
NEW BERN       CLOUDY    77  57  50 N5        30.03S
WILMINGTON     LGT RAIN  75  59  57 N6        30.01F
$$

VAZ048-221800-
ELSEWHERE

CITY           SKY/WX    TMP DP  RH WIND       PRES   REMARKS
HARRISBURG PA  MOSUNNY   67  46  47 NW21G28   30.02R
BALTIMORE      MOSUNNY   72  47  40 NW15      30.01R
ANNAPOLIS      MOSUNNY   68  49  50 NW13G23   30.01S
ANDREWS AFB    SUNNY     70  47  44 NW16G25   30.02S
WILMINGTON DE  PTSUNNY   70  50  49 NW13G20   29.99R
PHILADELPHIA   PTSUNNY   69  47  45 NW12G18   29.97R
WILDWOOD NJ*   MOSUNNY   70  48  46 NW14G20   29.98R
ATLANTIC CITY  MOSUNNY   73  51  46 NW13G21   29.94R
HENDERSON NC   MOSUNNY   73  46  39 NW8       30.06S
GREENSBORO     PTSUNNY   72  51  47 VRB3      30.08F
ROCKY MOUNT    MOSUNNY   76  53  44 VRB7      30.04S
FAYETTEVILLE   SUNNY     77  55  46 E7        30.02F
CHARLOTTE      PTSUNNY   73  51  46 N9        30.08R
$$

VAZ100-221800-
MARINE

STATION/POSITION TIME  TEMP    WIND        PRES    WAVE   SWELL
                       AIR SEA DIR/SP/G            HT/PER HT/PER
                 (UTC) (F)     (DEG/KT/KT) (MB)    (FT/S) (FT/S)
44066 TX TWR #4  1700   67 70  290/ 17/ 19 1012.1R   9/10   7/10
CAPE MAY NJ      1700   71 74  320/ 11/ 17 1014.3R
LEWES DE         1700   69 71  310/ 18/ 22 1014.5S
15NM E FENWICK I 1700   69 71              1014.5R   4/10
OCEAN-CITY-INLET 1700   71 72  310/ 15/ 20 1014.4R
WACHAPREAGUE VA  1700   72 74  320/  5/ 13 1015.8S
THOMAS POINT MD  1700   66 73  300/ 11/ 13 1017.3R
GOOSES REEF MD   1700   68     330/ 14/ 17 1016.8S
COVE POINT MD    1700   68     350/ 16/ 21 1016.2R
SOLOMONS ISLAND  1700      75                N/A
BISHOPS HEAD MD  1700   70 70  320/ 14/ 18 1015.5S
PINEY POINT MD   1700          330/ 20/ 23   N/A
POTOMAC MD       1700   69     310/ 17/ 21 1015.4F
CAMBRIDGE MD     1700   68 73  310/ 12/ 21 1015.8S
LEWISETTA VA     1700   69 74  310/ 17/ 23 1016.1R
RAPPAHANNOCK LGT 1700          330/ 16/ 18 1016.5R
STINGRAY PT      1700   71     320/ 12/ 16   N/A
YORK RVR RNG VA  1700   72     360/ 10/ 11 1015.6R
YORKTOWN VA      1700   72 76  310/ 12/ 13 1015.9R
JAMESTOWN VA     1700   71     330/  8/ 12   N/A
DOMINION TERM VA 1700   72     310/ 11/ 14 1016.1R
KIPTOPEKE VA     1700      78  350/ 11/ 15   N/A
CHES BAY BRIDGE  1700   71 75  330/ 10/ 11 1015.9R
CAPE HENRY VA    1700   71     320/ 11/ 14 1015.1R
CHESAPEAKE LGHT  1600   71     340/ 15/ 15 1016.5R
WILLOUBY STN VA  1700   72     340/  8/ 11 1015.0R
S CRANEY ISL VA  1700          260/  6/ 10 1016.2R
CAPE HENRY BUOY  1700      75                N/A     3/ 9
1ST LANDING BUOY 1700   72     330/ 10/ 12 1016.1R
CAPE CHARLES BUO 1700      74                N/A     3/ 9   3/ 9
OFFSHORE WE BUOY 1700      74                N/A     4/ 9   3/ 9
64NM E OF VA BCH 1700   71 76  340/ 12/ 16 1015.6R   5/ 8   3/ 8
DUCK PIER NC     1700   72 74   10/ 13/ 15 1015.4S
44100 DUCK FRF   1700      74                N/A     4/ 9
44056 DUCK FRF   1700                        N/A     3/ 9
OREGON INLET NC  1700   76 75  360/  9/ 13 1016.0S
DIAMOND SHLS NC  1600   76     330/ 10/ 14 1015.2R   5/ 8   5/ 8
CAPE LOOKOUT NC  1600   78      10/ 11/ 12 1015.8R
$$



USA.gov is the U.S. government's official web portal to all federal, state and local government web resources and services.